Year,Month,Day,Hour,Minute,Value (Times are PST for temperature in C)
2014,07,11,10,19,21.10
2014,07,11,10,20,21.10
2014,07,11,10,21,21.10
2014,07,11,10,22,21.00
2014,07,11,10,23,21.00
2014,07,11,10,24,21.00
2014,07,11,10,25,21.10
2014,07,11,10,26,21.10
2014,07,11,10,27,21.20
2014,07,11,10,28,21.30
2014,07,11,10,29,21.30
2014,07,11,10,30,21.30
2014,07,11,10,31,21.40
2014,07,11,10,32,21.40
2014,07,11,10,33,21.40
2014,07,11,10,34,21.30
2014,07,11,10,35,21.30
2014,07,11,10,36,21.30
2014,07,11,10,37,21.30
2014,07,11,10,38,21.30
2014,07,11,10,39,21.30
2014,07,11,10,40,21.30
2014,07,11,10,41,21.30
2014,07,11,10,42,21.30
2014,07,11,10,43,21.40
2014,07,11,10,44,21.50
2014,07,11,10,45,21.60
2014,07,11,10,46,21.70
2014,07,11,10,47,21.70
2014,07,11,10,48,21.70
2014,07,11,10,49,21.70
2014,07,11,10,50,21.60
2014,07,11,10,51,21.60
2014,07,11,10,52,21.60
2014,07,11,10,53,21.60
2014,07,11,10,54,21.60
2014,07,11,10,55,21.60
2014,07,11,10,56,21.60
2014,07,11,10,57,21.50
2014,07,11,10,58,21.60
2014,07,11,10,59,21.60
2014,07,11,11,00,21.60
2014,07,11,11,01,21.70
2014,07,11,11,02,21.80
2014,07,11,11,03,21.90
2014,07,11,11,04,22.00
2014,07,11,11,05,22.20
2014,07,11,11,06,22.20
2014,07,11,11,07,22.20
2014,07,11,11,08,22.20
2014,07,11,11,09,22.20
2014,07,11,11,10,22.20
2014,07,11,11,11,22.30
2014,07,11,11,12,22.40
2014,07,11,11,13,22.50
2014,07,11,11,14,22.50
2014,07,11,11,15,22.60
2014,07,11,11,16,22.60
2014,07,11,11,17,22.60
2014,07,11,11,18,22.60
2014,07,11,11,19,22.50
2014,07,11,11,20,22.40
2014,07,11,11,21,22.30
2014,07,11,11,22,22.30
2014,07,11,11,23,22.40
2014,07,11,11,24,22.40
2014,07,11,11,25,22.50
2014,07,11,11,26,22.60
2014,07,11,11,27,22.70
2014,07,11,11,28,22.80
2014,07,11,11,29,22.80
2014,07,11,11,30,22.90
2014,07,11,11,31,22.90
2014,07,11,11,32,22.90
2014,07,11,11,33,22.90
2014,07,11,11,34,23.00
2014,07,11,11,35,23.10
2014,07,11,11,36,23.10
2014,07,11,11,37,23.00
2014,07,11,11,38,22.90
2014,07,11,11,39,22.90
2014,07,11,11,40,22.90
2014,07,11,11,41,22.80
2014,07,11,11,42,22.80
2014,07,11,11,43,22.90
2014,07,11,11,44,22.80
2014,07,11,11,45,22.80
2014,07,11,11,46,22.80
2014,07,11,11,47,22.80
2014,07,11,11,48,22.80
2014,07,11,11,49,22.80
2014,07,11,11,50,22.90
2014,07,11,11,51,22.90
2014,07,11,11,52,22.90
2014,07,11,11,53,22.90
2014,07,11,11,54,22.90
2014,07,11,11,55,22.90
2014,07,11,11,56,23.00
2014,07,11,11,57,23.10
2014,07,11,11,58,23.20
2014,07,11,11,59,23.30
2014,07,11,12,00,23.30
2014,07,11,12,01,23.30
2014,07,11,12,02,23.30
2014,07,11,12,03,23.30
2014,07,11,12,04,23.40
2014,07,11,12,05,23.40
2014,07,11,12,06,23.40
2014,07,11,12,07,23.50
2014,07,11,12,08,23.40
2014,07,11,12,09,23.30
2014,07,11,12,10,23.30
2014,07,11,12,11,23.30
2014,07,11,12,12,23.30
2014,07,11,12,13,23.30
2014,07,11,12,14,23.30
2014,07,11,12,15,23.40
2014,07,11,12,16,23.50
2014,07,11,12,17,23.60
2014,07,11,12,18,23.70
2014,07,11,12,19,23.70
2014,07,11,12,20,23.70
2014,07,11,12,21,23.70
2014,07,11,12,22,23.80
2014,07,11,12,23,23.80
2014,07,11,12,24,23.80
2014,07,11,12,25,23.80
2014,07,11,12,26,23.80
2014,07,11,12,27,23.80
2014,07,11,12,28,23.80
2014,07,11,12,29,23.90
2014,07,11,12,30,23.90
2014,07,11,12,31,23.90
2014,07,11,12,32,23.90
2014,07,11,12,33,23.90
2014,07,11,12,34,23.90
2014,07,11,12,35,23.90
2014,07,11,12,36,23.90
2014,07,11,12,37,23.90
2014,07,11,12,38,23.80
2014,07,11,12,39,23.80
2014,07,11,12,40,23.80
2014,07,11,12,41,23.80
2014,07,11,12,42,23.80
2014,07,11,12,43,23.80
2014,07,11,12,44,23.90
2014,07,11,12,45,23.90
2014,07,11,12,46,24.00
2014,07,11,12,47,24.10
2014,07,11,12,48,24.10
2014,07,11,12,49,24.20
2014,07,11,12,50,24.30
2014,07,11,12,51,24.40
2014,07,11,12,52,24.50
2014,07,11,12,53,24.60
2014,07,11,12,54,24.70
2014,07,11,12,55,24.70
2014,07,11,12,56,24.80
2014,07,11,12,57,24.80
2014,07,11,12,58,24.80
2014,07,11,12,59,24.70
2014,07,11,13,00,24.60
2014,07,11,13,01,24.60
2014,07,11,13,02,24.50
2014,07,11,13,03,24.50
2014,07,11,13,04,24.50
2014,07,11,13,05,24.70
2014,07,11,13,06,24.80
2014,07,11,13,07,24.90
2014,07,11,13,08,24.90
2014,07,11,13,09,24.90
2014,07,11,13,10,25.00
2014,07,11,13,11,25.00
2014,07,11,13,12,25.00
2014,07,11,13,13,25.00
2014,07,11,13,14,25.10
2014,07,11,13,15,25.10
2014,07,11,13,16,25.10
2014,07,11,13,17,25.10
2014,07,11,13,18,25.10
2014,07,11,13,19,25.10
2014,07,11,13,20,25.10
2014,07,11,13,21,25.10
2014,07,11,13,22,25.10
2014,07,11,13,23,25.10
2014,07,11,13,24,25.10
2014,07,11,13,25,25.10
2014,07,11,13,26,25.10
2014,07,11,13,27,25.20
2014,07,11,13,28,25.20
2014,07,11,13,29,25.20
2014,07,11,13,30,25.20
2014,07,11,13,31,25.20
2014,07,11,13,32,25.20
2014,07,11,13,33,25.20
2014,07,11,13,34,25.20
2014,07,11,13,35,25.30
2014,07,11,13,36,25.30
2014,07,11,13,37,25.40
2014,07,11,13,38,25.30
2014,07,11,13,39,25.30
2014,07,11,13,40,25.20
2014,07,11,13,41,25.20
2014,07,11,13,42,25.40
2014,07,11,13,43,25.50
2014,07,11,13,44,25.60
2014,07,11,13,45,25.60
2014,07,11,13,46,25.70
2014,07,11,13,47,25.80
2014,07,11,13,48,25.90
2014,07,11,13,49,26.00
2014,07,11,13,50,26.10
2014,07,11,13,51,26.10
2014,07,11,13,52,26.10
2014,07,11,13,53,26.10
2014,07,11,13,54,26.10
2014,07,11,13,55,26.10
2014,07,11,13,56,26.20
2014,07,11,13,57,26.20
2014,07,11,13,58,26.20
2014,07,11,13,59,26.10
2014,07,11,14,00,26.10
2014,07,11,14,01,26.20
2014,07,11,14,02,26.10
2014,07,11,14,03,26.10
2014,07,11,14,04,26.10
2014,07,11,14,05,26.10
2014,07,11,14,06,26.10
2014,07,11,14,07,26.00
2014,07,11,14,08,26.00
2014,07,11,14,09,25.90
2014,07,11,14,10,26.00
2014,07,11,14,11,25.90
2014,07,11,14,12,25.90
2014,07,11,14,13,25.90
2014,07,11,14,14,25.90
2014,07,11,14,15,25.80
2014,07,11,14,16,25.80
2014,07,11,14,17,25.80
2014,07,11,14,18,25.80
2014,07,11,14,19,25.80
2014,07,11,14,20,25.80
2014,07,11,14,21,25.90
2014,07,11,14,22,26.00
2014,07,11,14,23,26.10
2014,07,11,14,24,26.10
2014,07,11,14,25,26.10
2014,07,11,14,26,26.10
2014,07,11,14,27,26.10
2014,07,11,14,28,26.10
2014,07,11,14,29,26.00
2014,07,11,14,30,26.00
2014,07,11,14,31,26.00
2014,07,11,14,32,26.00
2014,07,11,14,33,26.00
2014,07,11,14,34,26.00
2014,07,11,14,35,26.10
2014,07,11,14,36,26.10
2014,07,11,14,37,26.20
2014,07,11,14,38,26.20
2014,07,11,14,39,26.20
2014,07,11,14,40,26.20
2014,07,11,14,41,26.20
2014,07,11,14,42,26.30
2014,07,11,14,43,26.40
2014,07,11,14,44,26.40
2014,07,11,14,45,26.50
2014,07,11,14,46,26.60
2014,07,11,14,47,26.70
2014,07,11,14,48,26.80
2014,07,11,14,49,26.90
2014,07,11,14,50,27.00
2014,07,11,14,51,27.10
2014,07,11,14,52,27.10
2014,07,11,14,53,27.10
2014,07,11,14,54,27.10
2014,07,11,14,55,27.00
2014,07,11,14,56,27.00
2014,07,11,14,57,26.90
2014,07,11,14,58,26.90
2014,07,11,14,59,26.90
2014,07,11,15,00,27.00
2014,07,11,15,01,27.10
2014,07,11,15,02,27.20
2014,07,11,15,03,27.20
2014,07,11,15,04,27.30
2014,07,11,15,05,27.40
2014,07,11,15,06,27.50
2014,07,11,15,07,27.60
2014,07,11,15,08,27.40
2014,07,11,15,09,27.40
2014,07,11,15,10,27.30
2014,07,11,15,11,27.40
2014,07,11,15,12,27.40
2014,07,11,15,13,27.40
2014,07,11,15,14,27.40
2014,07,11,15,15,27.50
2014,07,11,15,16,27.60
2014,07,11,15,17,27.60
2014,07,11,15,18,27.70
2014,07,11,15,19,27.80
2014,07,11,15,20,27.80
2014,07,11,15,21,27.90
2014,07,11,15,22,27.90
2014,07,11,15,23,28.00
2014,07,11,15,24,28.00
2014,07,11,15,25,28.00
2014,07,11,15,26,28.00
2014,07,11,15,27,28.10
2014,07,11,15,28,28.20
2014,07,11,15,29,28.30
2014,07,11,15,30,28.40
2014,07,11,15,31,28.60
2014,07,11,15,32,28.60
2014,07,11,15,33,28.60
2014,07,11,15,34,28.50
2014,07,11,15,35,28.40
2014,07,11,15,36,28.40
2014,07,11,15,37,28.40
2014,07,11,15,38,28.40
2014,07,11,15,39,28.40
2014,07,11,15,40,28.40
2014,07,11,15,41,28.40
2014,07,11,15,42,28.40
2014,07,11,15,43,28.40
2014,07,11,15,44,28.40
2014,07,11,15,45,28.20
2014,07,11,15,46,28.00
2014,07,11,15,47,27.90
2014,07,11,15,48,27.90
2014,07,11,15,49,28.10
2014,07,11,15,50,28.20
2014,07,11,15,51,28.40
2014,07,11,15,52,28.40
2014,07,11,15,53,28.30
2014,07,11,15,54,28.10
2014,07,11,15,55,27.90
2014,07,11,15,56,27.90
2014,07,11,15,57,27.90
2014,07,11,15,58,28.00
2014,07,11,15,59,28.00
2014,07,11,16,00,28.00
2014,07,11,16,01,27.80
2014,07,11,16,02,27.60
2014,07,11,16,03,27.60
2014,07,11,16,04,27.50
2014,07,11,16,05,27.40
2014,07,11,16,06,27.40
2014,07,11,16,07,27.40
2014,07,11,16,08,27.40
2014,07,11,16,09,27.40
2014,07,11,16,10,27.40
2014,07,11,16,11,27.30
2014,07,11,16,12,27.30
2014,07,11,16,13,27.40
2014,07,11,16,14,27.60
2014,07,11,16,15,27.70
2014,07,11,16,16,27.60
2014,07,11,16,17,27.50
2014,07,11,16,18,27.40
2014,07,11,16,19,27.30
2014,07,11,16,20,27.30
2014,07,11,16,21,27.40
2014,07,11,16,22,27.60
2014,07,11,16,23,27.70
2014,07,11,16,24,27.80
2014,07,11,16,25,27.80
2014,07,11,16,26,27.80
2014,07,11,16,27,27.80
2014,07,11,16,28,27.80
2014,07,11,16,29,27.70
2014,07,11,16,30,27.70
2014,07,11,16,31,27.70
2014,07,11,16,32,27.70
2014,07,11,16,33,27.90
2014,07,11,16,34,28.00
2014,07,11,16,35,28.00
2014,07,11,16,36,27.90
2014,07,11,16,37,27.60
2014,07,11,16,38,27.40
2014,07,11,16,39,27.30
2014,07,11,16,40,27.30
2014,07,11,16,41,27.30
2014,07,11,16,42,27.30
2014,07,11,16,43,27.20
2014,07,11,16,44,27.20
2014,07,11,16,45,27.30
2014,07,11,16,46,27.30
2014,07,11,16,47,27.40
2014,07,11,16,48,27.40
2014,07,11,16,49,27.30
2014,07,11,16,50,27.30
2014,07,11,16,51,27.30
2014,07,11,16,52,27.30
2014,07,11,16,53,27.30
2014,07,11,16,54,27.30
2014,07,11,16,55,27.30
2014,07,11,16,56,27.30
2014,07,11,16,57,27.30
2014,07,11,16,58,27.30
2014,07,11,16,59,27.30
2014,07,11,17,00,27.30
2014,07,11,17,01,27.40
2014,07,11,17,02,27.40
2014,07,11,17,03,27.30
2014,07,11,17,04,27.30
2014,07,11,17,05,27.30
2014,07,11,17,06,27.30
2014,07,11,17,07,27.30
2014,07,11,17,08,27.40
2014,07,11,17,09,27.60
2014,07,11,17,10,27.60
2014,07,11,17,11,27.60
2014,07,11,17,12,27.70
2014,07,11,17,13,27.70
2014,07,11,17,14,27.70
2014,07,11,17,15,27.80
2014,07,11,17,16,27.90
2014,07,11,17,17,27.90
2014,07,11,17,18,27.90
2014,07,11,17,19,27.80
2014,07,11,17,20,27.80
2014,07,11,17,21,27.80
2014,07,11,17,22,27.80
2014,07,11,17,23,27.90
2014,07,11,17,24,27.90
2014,07,11,17,25,27.80
2014,07,11,17,26,27.80
2014,07,11,17,27,27.80
2014,07,11,17,28,27.80
2014,07,11,17,29,27.80
2014,07,11,17,30,27.70
2014,07,11,17,31,27.80
2014,07,11,17,32,27.90
2014,07,11,17,33,27.80
2014,07,11,17,34,27.70
2014,07,11,17,35,27.60
2014,07,11,17,36,27.40
2014,07,11,17,37,27.40
2014,07,11,17,38,27.40
2014,07,11,17,39,27.30
2014,07,11,17,40,27.40
2014,07,11,17,41,27.40
2014,07,11,17,42,27.40
2014,07,11,17,43,27.40
2014,07,11,17,44,27.40
2014,07,11,17,45,27.50
2014,07,11,17,46,27.50
2014,07,11,17,47,27.40
2014,07,11,17,48,27.30
2014,07,11,17,49,27.30
2014,07,11,17,50,27.30
2014,07,11,17,51,27.30
2014,07,11,17,52,27.40
2014,07,11,17,53,27.50
2014,07,11,17,54,27.40
2014,07,11,17,55,27.40
2014,07,11,17,56,27.40
2014,07,11,17,57,27.30
2014,07,11,17,58,27.30
2014,07,11,17,59,27.40
2014,07,11,18,00,27.30
2014,07,11,18,01,27.20
2014,07,11,18,02,27.10
2014,07,11,18,03,27.10
2014,07,11,18,04,27.10
2014,07,11,18,05,27.10
2014,07,11,18,06,27.10
2014,07,11,18,07,27.20
2014,07,11,18,08,27.30
2014,07,11,18,09,27.30
2014,07,11,18,10,27.30
2014,07,11,18,11,27.30
2014,07,11,18,12,27.30
2014,07,11,18,13,27.20
2014,07,11,18,14,27.30
2014,07,11,18,15,27.30
2014,07,11,18,16,27.30
2014,07,11,18,17,27.40
2014,07,11,18,18,27.40
2014,07,11,18,19,27.50
2014,07,11,18,20,27.60
2014,07,11,18,21,27.60
2014,07,11,18,22,27.60
2014,07,11,18,23,27.70
2014,07,11,18,24,27.90
2014,07,11,18,25,27.90
2014,07,11,18,26,27.90
2014,07,11,18,27,27.90
2014,07,11,18,28,27.80
2014,07,11,18,29,27.80
2014,07,11,18,30,27.70
2014,07,11,18,31,27.70
2014,07,11,18,32,27.70
2014,07,11,18,33,27.70
2014,07,11,18,34,27.70
2014,07,11,18,35,27.70
2014,07,11,18,36,27.70
2014,07,11,18,37,27.70
2014,07,11,18,38,27.70
2014,07,11,18,39,27.70
2014,07,11,18,40,27.80
2014,07,11,18,41,27.70
2014,07,11,18,42,27.70
2014,07,11,18,43,27.60
2014,07,11,18,44,27.50
2014,07,11,18,45,27.40
2014,07,11,18,46,27.30
2014,07,11,18,47,27.30
2014,07,11,18,48,27.30
2014,07,11,18,49,27.40
2014,07,11,18,50,27.50
2014,07,11,18,51,27.60
2014,07,11,18,52,27.70
2014,07,11,18,53,27.70
2014,07,11,18,54,27.70
2014,07,11,18,55,27.70
2014,07,11,18,56,27.60
2014,07,11,18,57,27.50
2014,07,11,18,58,27.40
2014,07,11,18,59,27.40
2014,07,11,19,00,27.40
2014,07,11,19,01,27.40
2014,07,11,19,02,27.30
2014,07,11,19,03,27.30
2014,07,11,19,04,27.30
2014,07,11,19,05,27.30
2014,07,11,19,06,27.30
2014,07,11,19,07,27.30
2014,07,11,19,08,27.20
2014,07,11,19,09,27.20
2014,07,11,19,10,27.10
2014,07,11,19,11,27.20
2014,07,11,19,12,27.30
2014,07,11,19,13,27.30
2014,07,11,19,14,27.30
2014,07,11,19,15,27.30
2014,07,11,19,16,27.30
2014,07,11,19,17,27.30
2014,07,11,19,18,27.20
2014,07,11,19,19,27.20
2014,07,11,19,20,27.20
2014,07,11,19,21,27.20
2014,07,11,19,22,27.10
2014,07,11,19,23,27.10
2014,07,11,19,24,27.00
2014,07,11,19,25,26.90
2014,07,11,19,26,26.80
2014,07,11,19,27,26.80
2014,07,11,19,28,26.80
2014,07,11,19,29,26.70
2014,07,11,19,30,26.70
2014,07,11,19,31,26.80
2014,07,11,19,32,26.80
2014,07,11,19,33,26.80
2014,07,11,19,34,26.80
2014,07,11,19,35,26.70
2014,07,11,19,36,26.70
2014,07,11,19,37,26.70
2014,07,11,19,38,26.70
2014,07,11,19,39,26.60
2014,07,11,19,40,26.50
2014,07,11,19,41,26.30
2014,07,11,19,42,26.10
2014,07,11,19,43,26.00
2014,07,11,19,44,25.90
2014,07,11,19,45,25.90
2014,07,11,19,46,25.90
2014,07,11,19,47,25.90
2014,07,11,19,48,25.90
2014,07,11,19,49,25.80
2014,07,11,19,50,25.80
2014,07,11,19,51,25.80
2014,07,11,19,52,25.60
2014,07,11,19,53,25.40
2014,07,11,19,54,25.40
2014,07,11,19,55,25.30
2014,07,11,19,56,25.30
2014,07,11,19,57,25.20
2014,07,11,19,58,25.20
2014,07,11,19,59,25.20
2014,07,11,20,00,25.10
2014,07,11,20,01,25.00
2014,07,11,20,02,25.00
2014,07,11,20,03,24.90
2014,07,11,20,04,24.80
2014,07,11,20,05,24.80
2014,07,11,20,06,24.80
2014,07,11,20,07,24.80
2014,07,11,20,08,24.80
2014,07,11,20,09,24.80
2014,07,11,20,10,24.80
2014,07,11,20,11,24.80
2014,07,11,20,12,24.80
2014,07,11,20,13,24.80
2014,07,11,20,14,24.80
